| time (UTC) | temp F | wind direction | speed MPH | gust MPH | rain 1hr in | rain 24hr in | rain mn in | humidity % | barometer mb |
| 20260906151505 | 70 | 355 | 1.0 | 5.0 | 0.00 | 0.02 | 0.00 | 77 | 1016.4 |
| 20260906150040 | 69 | 355 | 0.0 | 8.0 | 0.00 | 0.02 | 0.00 | 79 | 1016.4 |
| 20260906144608 | 69 | 302 | 2.0 | 5.0 | 0.00 | 0.02 | 0.00 | 78 | 1016.3 |
| 20260906143047 | 67 | 18 | 3.0 | 6.0 | 0.00 | 0.02 | 0.00 | 83 | 1016.1 |
| 20260906141605 | 65 | 24 | 1.0 | 4.0 | 0.00 | 0.02 | 0.00 | 89 | 1016.1 |
| 20260906140026 | 64 | 292 | 0.0 | 4.0 | 0.00 | 0.02 | 0.00 | 94 | 1016.0 |
| 20260906134605 | 62 | 192 | 0.0 | 4.0 | 0.00 | 0.02 | 0.00 | 97 | 1015.9 |
| 20260906133016 | 61 | 23 | 0.0 | 2.0 | 0.00 | 0.02 | 0.00 | 98 | 1015.9 |
| 20260906131549 | 60 | 360 | 0.0 | 4.0 | 0.00 | 0.02 | 0.00 | 98 | 1015.9 |
| 20260906130014 | 59 | 46 | 1.0 | 4.0 | 0.00 | 0.02 | 0.00 | 98 | 1015.8 |
| 20260906124521 | 59 | 19 | 0.0 | 3.0 | 0.00 | 0.02 | 0.00 | 98 | 1015.6 |
| 20260906123102 | 58 | 81 | 0.0 | 2.0 | 0.00 | 0.02 | 0.00 | 98 | 1015.6 |
| 20260906121528 | 57 | 43 | 0.0 | 0.0 | 0.00 | 0.02 | 0.00 | 98 | 1015.4 |
| 20260906120107 | 56 | 44 | 0.0 | 0.0 | 0.00 | 0.02 | 0.00 | 98 | 1015.3 |
| 20260906114538 | 55 | 43 | 0.0 | 0.0 | 0.00 | 0.02 | 0.00 | 98 | 1015.3 |
| 20260906113107 | 54 | 43 | 0.0 | 0.0 | 0.00 | 0.02 | 0.00 | 97 | 1015.1 |
| 20260906111528 | 53 | 43 | 0.0 | 0.0 | 0.00 | 0.02 | 0.00 | 97 | 1014.8 |
| 20260906110101 | 53 | 43 | 0.0 | 0.0 | 0.00 | 0.02 | 0.00 | 97 | 1014.7 |
| 20260906104558 | 53 | 43 | 0.0 | 0.0 | 0.00 | 0.02 | 0.00 | 97 | 1014.4 |
| 20260906103020 | 53 | 42 | 0.0 | 0.0 | 0.00 | 0.02 | 0.00 | 97 | 1014.3 |
| 20260906101605 | 53 | 42 | 0.0 | 0.0 | 0.00 | 0.02 | 0.00 | 97 | 1014.3 |
| 20260906100032 | 53 | 42 | 0.0 | 0.0 | 0.00 | 0.02 | 0.00 | 96 | 1014.4 |
| 20260906094608 | 53 | 42 | 0.0 | 0.0 | 0.00 | 0.02 | 0.00 | 96 | 1014.2 |
| 20260906093036 | 53 | 42 | 0.0 | 0.0 | 0.00 | 0.02 | 0.00 | 96 | 1014.1 |
| 20260906091514 | 54 | 42 | 0.0 | 0.0 | 0.00 | 0.02 | 0.00 | 96 | 1014.0 |
| 20260906090048 | 54 | 42 | 0.0 | 0.0 | 0.00 | 0.02 | 0.00 | 97 | 1013.9 |
| 20260906084532 | 53 | 42 | 0.0 | 0.0 | 0.00 | 0.02 | 0.00 | 96 | 1013.9 |
| 20260906083056 | 54 | 42 | 0.0 | 0.0 | 0.00 | 0.02 | 0.00 | 96 | 1013.7 |
| 20260906081539 | 54 | 42 | 0.0 | 0.0 | 0.00 | 0.02 | 0.00 | 96 | 1013.7 |
| 20260906080114 | 54 | 42 | 0.0 | 0.0 | 0.00 | 0.02 | 0.00 | 96 | 1013.5 |
| 20260906074543 | 54 | 42 | 0.0 | 0.0 | 0.00 | 0.02 | 0.00 | 96 | 1013.5 |
| 20260906073011 | 55 | 42 | 0.0 | 0.0 | 0.00 | 0.02 | 0.00 | 95 | 1013.5 |
| 20260906071543 | 55 | 42 | 0.0 | 0.0 | 0.00 | 0.02 | 0.00 | 95 | 1013.3 |
| 20260906070011 | 55 | 42 | 0.0 | 0.0 | 0.00 | 0.02 | 0.00 | 95 | 1013.3 |
| 20260906064551 | 55 | 42 | 0.0 | 0.0 | 0.00 | 0.02 | 0.00 | 95 | 1013.2 |
| 20260906063012 | 56 | 42 | 0.0 | 0.0 | 0.00 | 0.02 | 0.00 | 95 | 1013.2 |
| 20260906061551 | 56 | 42 | 0.0 | 0.0 | 0.00 | 0.02 | 0.00 | 95 | 1013.0 |
| 20260906060011 | 56 | 42 | 0.0 | 0.0 | 0.00 | 0.02 | 0.00 | 94 | 1013.2 |
| 20260906054548 | 57 | 42 | 0.0 | 0.0 | 0.00 | 0.02 | 0.00 | 94 | 1013.2 |
| 20260906053016 | 57 | 42 | 0.0 | 0.0 | 0.00 | 0.02 | 0.00 | 94 | 1013.2 |
| 20260906051558 | 58 | 42 | 0.0 | 0.0 | 0.00 | 0.02 | 0.00 | 94 | 1013.1 |
| 20260906050017 | 58 | 42 | 0.0 | 0.0 | 0.00 | 0.02 | 0.00 | 94 | 1013.1 |
| 20260906044552 | 58 | 42 | 0.0 | 0.0 | 0.00 | 0.02 | 0.00 | 93 | 1013.1 |
| 20260906043018 | 59 | 42 | 0.0 | 0.0 | 0.00 | 0.02 | 0.00 | 93 | 1013.2 |
| 20260906041600 | 59 | 42 | 0.0 | 0.0 | 0.00 | 0.02 | 0.00 | 92 | 1013.1 |
| 20260906040037 | 60 | 42 | 0.0 | 0.0 | 0.00 | 0.02 | 0.00 | 92 | 1013.2 |
| 20260906034612 | 60 | 42 | 0.0 | 0.0 | 0.00 | 0.02 | 0.02 | 91 | 1013.2 |
| 20260906033040 | 61 | 42 | 0.0 | 0.0 | 0.00 | 0.02 | 0.02 | 90 | 1013.2 |
| 20260906031503 | 62 | 42 | 0.0 | 0.0 | 0.00 | 0.02 | 0.02 | 89 | 1013.2 |
| 20260906030040 | 62 | 42 | 0.0 | 0.0 | 0.00 | 0.02 | 0.02 | 88 | 1013.1 |
| 20260906024508 | 63 | 42 | 0.0 | 0.0 | 0.00 | 0.02 | 0.02 | 88 | 1013.0 |
| 20260906023056 | 64 | 42 | 0.0 | 1.0 | 0.00 | 0.02 | 0.02 | 87 | 1013.0 |
| 20260906021509 | 64 | 44 | 0.0 | 0.0 | 0.00 | 0.02 | 0.02 | 86 | 1012.9 |
| 20260906020050 | 65 | 49 | 0.0 | 0.0 | 0.00 | 0.02 | 0.02 | 86 | 1012.6 |
| 20260906014522 | 66 | 49 | 0.0 | 1.0 | 0.00 | 0.02 | 0.02 | 84 | 1012.6 |
| 20260906013047 | 67 | 57 | 0.0 | 0.0 | 0.00 | 0.02 | 0.02 | 83 | 1012.5 |
| 20260906011510 | 67 | 57 | 1.0 | 2.0 | 0.00 | 0.02 | 0.02 | 81 | 1012.4 |
| 20260906010005 | 67 | 360 | 2.0 | 4.0 | 0.00 | 0.02 | 0.02 | 82 | 1012.1 |
| 20260906004549 | 68 | 17 | 0.0 | 0.0 | 0.00 | 0.02 | 0.02 | 82 | 1012.0 |
| 20260906003011 | 69 | 17 | 0.0 | 0.0 | 0.00 | 0.02 | 0.02 | 79 | 1011.8 |
| 20260906001551 | 70 | 17 | 1.0 | 3.0 | 0.00 | 0.02 | 0.02 | 76 | 1011.6 |
| 20260906000109 | 71 | 5 | 0.0 | 3.0 | 0.00 | 0.02 | 0.02 | 76 | 1011.4 |
| 20260905234531 | 72 | 31 | 0.0 | 2.0 | 0.00 | 0.02 | 0.02 | 76 | 1011.4 |
| 20260905233108 | 73 | 31 | 0.0 | 1.0 | 0.00 | 0.02 | 0.02 | 73 | 1011.4 |
| 20260905231539 | 74 | 351 | 0.0 | 6.0 | 0.00 | 0.02 | 0.02 | 70 | 1011.4 |
| 20260905230113 | 75 | 360 | 2.0 | 3.0 | 0.00 | 0.02 | 0.02 | 68 | 1011.2 |
| 20260905224555 | 77 | 355 | 1.0 | 4.0 | 0.00 | 0.02 | 0.02 | 66 | 1011.3 |
| 20260905223023 | 77 | 342 | 1.0 | 5.0 | 0.00 | 0.02 | 0.02 | 65 | 1011.1 |
| 20260905221617 | 77 | 17 | 1.0 | 6.0 | 0.00 | 0.02 | 0.02 | 67 | 1011.0 |
| 20260905220055 | 78 | 344 | 4.0 | 7.0 | 0.00 | 0.02 | 0.02 | 63 | 1010.8 |
| 20260905214523 | 78 | 350 | 1.0 | 6.0 | 0.00 | 0.02 | 0.02 | 66 | 1010.7 |
| 20260905213105 | 78 | 5 | 1.0 | 3.0 | 0.00 | 0.02 | 0.02 | 70 | 1010.6 |
| 20260905211511 | 77 | 16 | 1.0 | 7.0 | 0.00 | 0.02 | 0.02 | 72 | 1010.6 |
| 20260905210103 | 78 | 17 | 2.0 | 5.0 | 0.00 | 0.02 | 0.02 | 72 | 1010.5 |
| 20260905204509 | 77 | 29 | 2.0 | 4.0 | 0.00 | 0.02 | 0.02 | 73 | 1010.7 |
| 20260905203018 | 79 | 271 | 1.0 | 5.0 | 0.00 | 0.02 | 0.02 | 71 | 1010.7 |
| 20260905201556 | 77 | 26 | 1.0 | 3.0 | 0.00 | 0.02 | 0.02 | 75 | 1010.8 |
| 20260905200019 | 77 | 26 | 0.0 | 5.0 | 0.00 | 0.02 | 0.02 | 76 | 1010.8 |
| 20260905194608 | 77 | 355 | 0.0 | 3.0 | 0.00 | 0.02 | 0.02 | 75 | 1010.9 |
| 20260905193040 | 77 | 142 | 0.0 | 2.0 | 0.00 | 0.02 | 0.02 | 77 | 1011.1 |
| 20260905191604 | 77 | 142 | 0.0 | 1.0 | 0.00 | 0.02 | 0.02 | 76 | 1011.3 |
| 20260905190040 | 77 | 142 | 0.0 | 3.0 | 0.00 | 0.02 | 0.02 | 75 | 1011.3 |
| 20260905184540 | 77 | 26 | 2.0 | 6.0 | 0.00 | 0.02 | 0.02 | 74 | 1011.4 |
| 20260905183110 | 77 | 5 | 1.0 | 4.0 | 0.00 | 0.02 | 0.02 | 79 | 1011.7 |
| 20260905181535 | 75 | 355 | 0.0 | 3.0 | 0.00 | 0.02 | 0.02 | 81 | 1011.7 |
| 20260905180116 | 74 | 314 | 1.0 | 5.0 | 0.00 | 0.02 | 0.02 | 82 | 1011.9 |
| 20260905174602 | 74 | 355 | 0.0 | 5.0 | 0.00 | 0.02 | 0.02 | 87 | 1012.0 |
| 20260905173035 | 73 | 360 | 1.0 | 4.0 | 0.02 | 0.02 | 0.02 | 89 | 1012.0 |
| 20260905170020 | 73 | 360 | 0.0 | 0.0 | 0.02 | 0.02 | 0.02 | 92 | 1012.3 |
| 20260905163004 | 73 | 360 | 0.0 | 4.0 | 0.00 | 0.00 | 0.00 | 87 | 1012.5 |
| 20260905161544 | 74 | 60 | 0.0 | 3.0 | 0.00 | 0.00 | 0.00 | 84 | 1012.6 |
| 20260905160007 | 74 | 51 | 0.0 | 1.0 | 0.00 | 0.00 | 0.00 | 84 | 1012.8 |
| 20260905154549 | 74 | 55 | 1.0 | 3.0 | 0.00 | 0.00 | 0.00 | 83 | 1012.7 |